Starlink 4556

operational
NORAD ID: 53578 Int'l Des: 2022-101 Owner: SPXS Country: US Constellation: starlink
LEOCIRCULAR

About Starlink 4556

Description loading...

Live Position

Loading 3D Globe...

Upcoming Passes

Altitude History

Altitude vs Time

uPlot chart will show altitude changes over time

Two-Line Element Set

1 53578U 22101BD 26063.01477563 .00000647 00000-0 58755-4 0 9995
2 53578 53.2171 79.2315 0001194 85.8224 274.2904 15.08840259195599
Epoch: Mar 4, 2026 • Age: 16 hours

Current Status

Altitude 557.5 km
Velocity 7.58 km/s
Sub-Earth Point -49.38°S, 82.53°W
Launch Date Aug 19, 2022
Age 3.5 years
Type internet

Technical Details

Classification Payload
Mass 300.00 kg
Dry Mass 290.00 kg
Total Mass 300.00 kg
Length 0.20 m
Diameter 2.80 m
Span 9.00 m
Shape Box + pan
Manufacturer SPXS
Bus Type Starlink
Phase Status In Orbit
Owner/State SPXS/US

Large Constellations

Loading constellations...